TimeAKST,TemperatureF,Dew PointF,Humidity,Sea Level PressureIn,VisibilityMPH,Wind Direction,Wind SpeedMPH,Gust SpeedMPH,PrecipitationIn,Events,Conditions,WindDirDegrees,DateUTC
12:16 AM,12.2,10.4,92,29.98,0.8,East,3.5,-,N/A,,Overcast,80,2013-12-19 09:16:00
12:36 AM,12.2,10.4,92,29.95,0.8,Calm,Calm,-,N/A,,Overcast,0,2013-12-19 09:36:00
12:56 AM,14.0,8.6,79,29.91,0.8,Calm,Calm,-,N/A,,Overcast,0,2013-12-19 09:56:00
1:16 AM,15.8,10.4,79,29.89,0.8,East,3.5,-,N/A,,Overcast,90,2013-12-19 10:16:00
1:36 AM,15.8,14.0,93,29.87,1.0,Calm,Calm,-,N/A,,Overcast,0,2013-12-19 10:36:00
1:56 AM,19.4,15.8,86,29.86,3.0,SW,5.8,-,N/A,,Overcast,220,2013-12-19 10:56:00
2:16 AM,17.6,14.0,86,29.85,2.0,Calm,Calm,-,N/A,,Overcast,0,2013-12-19 11:16:00
2:36 AM,17.6,15.8,93,29.84,2.0,Calm,Calm,-,N/A,,Overcast,0,2013-12-19 11:36:00
2:56 AM,17.6,14.0,86,29.83,1.5,East,4.6,-,N/A,,Overcast,100,2013-12-19 11:56:00
3:16 AM,17.6,15.8,93,29.82,1.2,ENE,3.5,-,N/A,,Overcast,60,2013-12-19 12:16:00
3:36 AM,19.4,14.0,80,29.81,2.0,Calm,Calm,-,0.01,,Overcast,0,2013-12-19 12:36:00
3:56 AM,19.4,19.4,100,29.80,4.0,Calm,Calm,-,0.01,,Overcast,0,2013-12-19 12:56:00
4:16 AM,19.4,17.6,93,29.79,5.0,Calm,Calm,-,N/A,,Overcast,0,2013-12-19 13:16:00
4:36 AM,19.4,15.8,86,29.78,3.0,Calm,Calm,-,N/A,,Overcast,0,2013-12-19 13:36:00
4:56 AM,19.4,17.6,93,29.76,3.0,Calm,Calm,-,N/A,,Overcast,0,2013-12-19 13:56:00
5:16 AM,19.4,17.6,93,29.75,8.0,Calm,Calm,-,N/A,,Overcast,0,2013-12-19 14:16:00
5:36 AM,19.4,15.8,86,29.73,8.0,Calm,Calm,-,N/A,,Overcast,0,2013-12-19 14:36:00
5:56 AM,19.4,15.8,86,29.74,10.0,Calm,Calm,-,N/A,,Overcast,0,2013-12-19 14:56:00
6:16 AM,19.4,15.8,86,29.73,8.0,Calm,Calm,-,N/A,,Mostly Cloudy,0,2013-12-19 15:16:00
6:36 AM,19.4,17.6,93,29.74,8.0,Calm,Calm,-,N/A,,Mostly Cloudy,0,2013-12-19 15:36:00
6:56 AM,19.4,17.6,93,29.74,10.0,Calm,Calm,-,N/A,,Mostly Cloudy,0,2013-12-19 15:56:00
7:16 AM,17.6,14.0,86,29.74,10.0,ENE,3.5,-,N/A,,Mostly Cloudy,70,2013-12-19 16:16:00
7:36 AM,19.4,17.6,93,29.73,10.0,Calm,Calm,-,N/A,,Mostly Cloudy,0,2013-12-19 16:36:00
7:56 AM,19.4,14.0,80,29.72,10.0,Calm,Calm,-,0.01,,Mostly Cloudy,0,2013-12-19 16:56:00
8:16 AM,17.6,15.8,93,29.73,10.0,Calm,Calm,-,N/A,,Mostly Cloudy,0,2013-12-19 17:16:00
8:36 AM,19.4,17.6,93,29.72,10.0,Calm,Calm,-,0.01,,Mostly Cloudy,0,2013-12-19 17:36:00
8:56 AM,19.4,15.8,86,29.72,10.0,Calm,Calm,-,0.01,,Mostly Cloudy,0,2013-12-19 17:56:00
9:16 AM,19.4,17.6,93,29.72,10.0,Calm,Calm,-,N/A,,Mostly Cloudy,0,2013-12-19 18:16:00
9:36 AM,19.4,10.4,68,29.72,10.0,NW,3.5,-,N/A,,Mostly Cloudy,310,2013-12-19 18:36:00
9:56 AM,19.4,14.0,80,29.71,10.0,Calm,Calm,-,N/A,,Mostly Cloudy,0,2013-12-19 18:56:00
10:16 AM,17.6,12.2,79,29.71,10.0,Calm,Calm,-,N/A,,Mostly Cloudy,0,2013-12-19 19:16:00
10:36 AM,15.8,6.8,68,29.71,10.0,Calm,Calm,-,N/A,,Mostly Cloudy,0,2013-12-19 19:36:00
10:56 AM,15.8,12.2,86,29.71,10.0,Calm,Calm,-,N/A,,Scattered Clouds,0,2013-12-19 19:56:00
11:16 AM,14.0,10.4,86,29.70,10.0,Calm,Calm,-,N/A,,Scattered Clouds,0,2013-12-19 20:16:00
11:36 AM,15.8,12.2,86,29.70,10.0,Calm,Calm,-,N/A,,Scattered Clouds,0,2013-12-19 20:36:00
11:56 AM,15.8,15.8,100,29.70,10.0,Calm,Calm,-,N/A,,Clear,0,2013-12-19 20:56:00
12:16 PM,12.2,8.6,85,29.70,10.0,Calm,Calm,-,N/A,,Clear,0,2013-12-19 21:16:00
12:36 PM,14.0,12.2,93,29.70,10.0,Calm,Calm,-,N/A,,Clear,0,2013-12-19 21:36:00
12:56 PM,21.2,19.4,93,29.71,10.0,Calm,Calm,-,N/A,,Clear,0,2013-12-19 21:56:00
1:16 PM,15.8,6.8,68,29.72,10.0,Calm,Calm,-,N/A,,Clear,0,2013-12-19 22:16:00
1:36 PM,17.6,15.8,93,29.71,10.0,Calm,Calm,-,N/A,,Clear,0,2013-12-19 22:36:00
1:56 PM,15.8,8.6,73,29.72,10.0,ENE,3.5,-,N/A,,Partly Cloudy,70,2013-12-19 22:56:00
2:16 PM,15.8,8.6,73,29.71,10.0,Calm,Calm,-,N/A,,Partly Cloudy,0,2013-12-19 23:16:00
2:36 PM,17.6,12.2,79,29.70,10.0,Calm,Calm,-,N/A,,Partly Cloudy,0,2013-12-19 23:36:00
2:56 PM,15.8,12.2,86,29.70,10.0,Calm,Calm,-,N/A,,Partly Cloudy,0,2013-12-19 23:56:00
3:16 PM,15.8,10.4,79,29.69,10.0,Calm,Calm,-,N/A,,Partly Cloudy,0,2013-12-20 00:16:00
3:36 PM,14.0,10.4,86,29.69,10.0,Calm,Calm,-,N/A,,Partly Cloudy,0,2013-12-20 00:36:00
3:56 PM,12.2,8.6,85,29.69,10.0,Calm,Calm,-,N/A,,Partly Cloudy,0,2013-12-20 00:56:00
4:16 PM,12.2,8.6,85,29.68,10.0,Calm,Calm,-,N/A,,Partly Cloudy,0,2013-12-20 01:16:00
4:36 PM,14.0,14.0,100,29.69,10.0,ENE,5.8,-,N/A,,Partly Cloudy,60,2013-12-20 01:36:00
4:56 PM,15.8,10.4,79,29.68,10.0,Calm,Calm,-,N/A,,Partly Cloudy,0,2013-12-20 01:56:00
5:16 PM,12.2,8.6,85,29.68,10.0,Calm,Calm,-,N/A,,Partly Cloudy,0,2013-12-20 02:16:00
5:36 PM,10.4,8.6,92,29.68,10.0,Calm,Calm,-,N/A,,Partly Cloudy,0,2013-12-20 02:36:00
5:56 PM,14.0,8.6,79,29.68,10.0,Calm,Calm,-,N/A,,Partly Cloudy,0,2013-12-20 02:56:00
6:16 PM,12.2,5.0,73,29.67,10.0,NE,4.6,-,N/A,,Partly Cloudy,40,2013-12-20 03:16:00
6:36 PM,10.4,8.6,92,29.66,10.0,ENE,3.5,-,N/A,,Partly Cloudy,60,2013-12-20 03:36:00
6:56 PM,17.6,15.8,93,29.66,10.0,Calm,Calm,-,N/A,,Partly Cloudy,0,2013-12-20 03:56:00
7:16 PM,17.6,12.2,79,29.66,10.0,Calm,Calm,-,N/A,,Partly Cloudy,0,2013-12-20 04:16:00
7:36 PM,17.6,12.2,79,29.66,10.0,North,3.5,-,N/A,,Partly Cloudy,360,2013-12-20 04:36:00
7:56 PM,17.6,10.4,73,29.66,10.0,NNE,5.8,-,N/A,,Partly Cloudy,20,2013-12-20 04:56:00
8:16 PM,17.6,12.2,79,29.66,10.0,Calm,Calm,-,N/A,,Partly Cloudy,0,2013-12-20 05:16:00
8:36 PM,17.6,6.8,63,29.65,10.0,Calm,Calm,-,N/A,,Partly Cloudy,0,2013-12-20 05:36:00
8:56 PM,14.0,5.0,67,29.65,10.0,East,3.5,-,N/A,,Mostly Cloudy,80,2013-12-20 05:56:00
9:16 PM,15.8,10.4,79,29.64,10.0,Calm,Calm,-,N/A,,Mostly Cloudy,0,2013-12-20 06:16:00
9:36 PM,15.8,6.8,68,29.65,10.0,East,5.8,-,N/A,,Mostly Cloudy,100,2013-12-20 06:36:00
9:56 PM,12.2,8.6,85,29.64,10.0,NE,3.5,-,N/A,,Mostly Cloudy,40,2013-12-20 06:56:00
10:16 PM,15.8,12.2,86,29.65,10.0,Calm,Calm,-,N/A,,Clear,0,2013-12-20 07:16:00
10:36 PM,12.2,8.6,85,29.65,10.0,Calm,Calm,-,N/A,,Clear,0,2013-12-20 07:36:00
10:56 PM,14.0,8.6,79,29.66,10.0,Calm,Calm,-,N/A,,Clear,0,2013-12-20 07:56:00
11:16 PM,14.0,8.6,79,29.66,10.0,Calm,Calm,-,0.01,,Clear,0,2013-12-20 08:16:00
11:36 PM,15.8,5.0,62,29.67,10.0,Calm,Calm,-,0.01,,Clear,0,2013-12-20 08:36:00
11:56 PM,15.8,8.6,73,29.67,10.0,Calm,Calm,-,0.01,,Clear,0,2013-12-20 08:56:00